Sparta, TN

9:38 PM CST on December 08, 2019 (GMT -0600)
Upper Cumberland Regional

Weather History for KSRB - November, 2019

Change the Weather History Date:

Monday, November 18, 2019

  Actual Average (WUND) Record (WUND)
Temperature  
Mean Temperature 46 °F -  
Max Temperature 55 °F - - (-1)
Min Temperature 37 °F - - (-1)
Degree Days  
Heating Degree Days 19    
Moisture  
Dew Point 35 °F    
Average Humidity 67    
Maximum Humidity 93    
Minimum Humidity 47    
Precipitation  
Precipitation 0.00 in - - ()
Sea Level Pressure  
Sea Level Pressure 29.82 in    
Wind  
Wind Speed 4 mph ()    
Max Wind Speed 9 mph    
Max Gust Speed 15 mph    
Visibility 10.0 miles    
Events      
Averages and records for this station are not official NWS values.
T = Trace of Precipitation, MM = Missing Value Source: Averaged Metar Reports

Daily Weather History Graph

Daily Weather History Graph

Search for Another Location

Airport or City:

Astronomy

Nov. 18, 2019 Rise Set
Actual Time 6:21 AM CST 4:32 PM CST
Civil Twilight 5:54 AM CST 5:00 PM CST
Nautical Twilight 5:22 AM CST 5:31 PM CST
Astronomical Twilight 4:52 AM CST 6:01 PM CST
Moon 10:17 PM CST (11/18) 11:51 AM CST (11/18)
Length of Visible Light 11h 06m
Length of Day
10h 11m
Waning Gibbous, 63% of the Moon is Illuminated
Nov 18
Waning Gibbous
Nov 19
Last Quarter
Nov 26
New
Dec 4
First Quarter
Dec 11
Full

Hourly Weather History & Observations

Time (CST) Temp. Windchill Dew Point Humidity Pressure Visibility Wind Dir Wind Speed Gust Speed Precip Events Conditions
9:15 AM 46.4 °F 44.3 °F 37.4 °F 71% 29.87 in 10.0 mi Variable 4.6 mph - N/A   Clear
9:55 AM 48.2 °F - 35.6 °F 62% 29.85 in 10.0 mi North 4.6 mph - N/A   Clear
10:15 AM 50.0 °F - 35.6 °F 58% 29.85 in 10.0 mi NW 3.5 mph - N/A   Clear
10:35 AM 50.0 °F - 37.4 °F 62% 29.84 in 10.0 mi SW 9.2 mph - N/A   Partly Cloudy
10:55 AM 51.8 °F - 35.6 °F 54% 29.83 in 10.0 mi Variable 5.8 mph - N/A   Partly Cloudy
11:15 AM 51.8 °F - 33.8 °F 50% 29.82 in 10.0 mi WSW 8.1 mph - N/A   Partly Cloudy
11:35 AM 51.8 °F - 33.8 °F 50% 29.81 in 10.0 mi Variable 4.6 mph - N/A   Clear
11:55 AM 51.8 °F - 33.8 °F 50% 29.80 in 10.0 mi WNW 8.1 mph - N/A   Clear
12:15 PM 53.6 °F - 35.6 °F 51% 29.79 in 10.0 mi Variable 6.9 mph 13.8 mph N/A   Clear
12:35 PM 53.6 °F - 35.6 °F 51% 29.79 in 10.0 mi Calm Calm 11.5 mph N/A   Clear
12:55 PM 53.6 °F - 35.6 °F 51% 29.78 in 10.0 mi North 8.1 mph - N/A   Partly Cloudy
1:15 PM 51.8 °F - 35.6 °F 54% 29.78 in 10.0 mi Variable 6.9 mph - N/A   Scattered Clouds
1:35 PM 53.6 °F - 35.6 °F 51% 29.78 in 10.0 mi West 6.9 mph - N/A   Scattered Clouds
1:55 PM 55.4 °F - 35.6 °F 47% 29.77 in 10.0 mi West 6.9 mph - N/A   Scattered Clouds
2:15 PM 53.6 °F - 35.6 °F 51% 29.78 in 10.0 mi Variable 6.9 mph - N/A   Partly Cloudy
2:35 PM 51.8 °F - 35.6 °F 54% 29.78 in 10.0 mi NW 5.8 mph 12.7 mph N/A   Mostly Cloudy
3:15 PM 50.0 °F - 35.6 °F 58% 29.79 in 10.0 mi West 8.1 mph 15.0 mph N/A   Overcast
3:35 PM 48.2 °F - 37.4 °F 66% 29.80 in 10.0 mi NNW 8.1 mph - N/A   Overcast
3:55 PM 48.2 °F - 35.6 °F 62% 29.80 in 10.0 mi Variable 5.8 mph 13.8 mph N/A   Overcast
4:15 PM 48.2 °F - 35.6 °F 62% 29.81 in 10.0 mi WNW 5.8 mph 12.7 mph N/A   Overcast
4:35 PM 46.4 °F 42.9 °F 35.6 °F 66% 29.81 in 10.0 mi NW 6.9 mph - N/A   Overcast
4:55 PM 46.4 °F 42.9 °F 35.6 °F 66% 29.82 in 10.0 mi NW 6.9 mph - N/A   Overcast
5:15 PM 46.4 °F 43.5 °F 33.8 °F 62% 29.82 in 10.0 mi Variable 5.8 mph - N/A   Overcast
5:35 PM 46.4 °F 43.5 °F 33.8 °F 62% 29.82 in 10.0 mi NW 5.8 mph - N/A   Overcast
6:15 PM 46.4 °F 44.3 °F 33.8 °F 62% 29.83 in 10.0 mi Variable 4.6 mph - N/A   Overcast
6:35 PM 46.4 °F - 33.8 °F 62% 29.83 in 10.0 mi Calm Calm - N/A   Overcast
6:55 PM 46.4 °F 45.2 °F 35.6 °F 66% 29.83 in 10.0 mi Variable 3.5 mph - N/A   Overcast
7:15 PM 46.4 °F - 35.6 °F 66% 29.83 in 10.0 mi Calm Calm - N/A   Overcast
7:35 PM 44.6 °F 43.1 °F 35.6 °F 71% 29.84 in 10.0 mi NW 3.5 mph - N/A   Overcast
7:55 PM 44.6 °F 43.1 °F 33.8 °F 66% 29.84 in 10.0 mi NNW 3.5 mph - N/A   Overcast
8:15 PM 41.0 °F - 33.8 °F 76% 29.84 in 10.0 mi Calm Calm - N/A   Overcast
8:35 PM 37.4 °F - 33.8 °F 87% 29.83 in 10.0 mi Calm Calm - N/A   Scattered Clouds
8:55 PM 37.4 °F - 33.8 °F 87% 29.84 in 10.0 mi Calm Calm - N/A   Clear
9:15 PM 39.2 °F - 35.6 °F 87% 29.84 in 10.0 mi Calm Calm - N/A   Partly Cloudy
9:35 PM 39.2 °F - 35.6 °F 87% 29.84 in 10.0 mi Calm Calm - N/A   Scattered Clouds
9:55 PM 39.2 °F - 35.6 °F 87% 29.84 in 10.0 mi Calm Calm - N/A   Mostly Cloudy
10:15 PM 39.2 °F - 35.6 °F 87% 29.84 in 10.0 mi Calm Calm - N/A   Mostly Cloudy
10:35 PM 39.2 °F - 35.6 °F 87% 29.84 in 10.0 mi Calm Calm - N/A   Overcast
10:55 PM 37.4 °F - 35.6 °F 93% 29.83 in 10.0 mi Calm Calm - N/A   Overcast
11:15 PM 37.4 °F - 35.6 °F 93% 29.82 in 10.0 mi Calm Calm - N/A   Overcast
11:35 PM 37.4 °F - 35.6 °F 93% 29.82 in 10.0 mi Calm Calm - N/A   Overcast
11:55 PM 37.4 °F - 35.6 °F 93% 29.83 in 10.0 mi Calm Calm - N/A   Overcast